#datetime,building,power
2023-05-05T00:00:00,mcc,40.68
2023-05-05T00:01:00,mcc,41.78
2023-05-05T00:02:00,mcc,41.81
2023-05-05T00:03:00,mcc,43.71
2023-05-05T00:04:00,mcc,42.20
2023-05-05T00:05:00,mcc,42.30
2023-05-05T00:06:00,mcc,43.07
2023-05-05T00:07:00,mcc,41.23
2023-05-05T00:08:00,mcc,40.84
2023-05-05T00:09:00,mcc,39.79
2023-05-05T00:10:00,mcc,38.66
2023-05-05T00:11:00,mcc,38.66
2023-05-05T00:12:00,mcc,38.53
2023-05-05T00:13:00,mcc,46.77
2023-05-05T00:14:00,mcc,36.57
2023-05-05T00:15:00,mcc,36.67
2023-05-05T00:16:00,mcc,38.39
2023-05-05T00:17:00,mcc,36.30
2023-05-05T00:18:00,mcc,36.31
2023-05-05T00:19:00,mcc,36.40
2023-05-05T00:20:00,mcc,41.26
2023-05-05T00:21:00,mcc,37.96
2023-05-05T00:22:00,mcc,37.68
2023-05-05T00:23:00,mcc,42.12
2023-05-05T00:24:00,mcc,38.52
2023-05-05T00:25:00,mcc,41.40
2023-05-05T00:26:00,mcc,41.41
2023-05-05T00:27:00,mcc,40.61
2023-05-05T00:28:00,mcc,39.45
2023-05-05T00:29:00,mcc,41.50
2023-05-05T00:30:00,mcc,43.06
2023-05-05T00:31:00,mcc,40.10
2023-05-05T00:32:00,mcc,47.03
2023-05-05T00:33:00,mcc,40.34
2023-05-05T00:34:00,mcc,40.84
2023-05-05T00:35:00,mcc,41.13
2023-05-05T00:36:00,mcc,41.30
2023-05-05T00:37:00,mcc,42.45
2023-05-05T00:38:00,mcc,40.12
2023-05-05T00:39:00,mcc,39.68
2023-05-05T00:40:00,mcc,38.24
2023-05-05T00:41:00,mcc,36.78
2023-05-05T00:42:00,mcc,34.80
2023-05-05T00:43:00,mcc,34.19
2023-05-05T00:44:00,mcc,36.70
2023-05-05T00:45:00,mcc,35.71
2023-05-05T00:46:00,mcc,36.59
2023-05-05T00:47:00,mcc,36.35
2023-05-05T00:48:00,mcc,35.92
2023-05-05T00:49:00,mcc,36.96
2023-05-05T00:50:00,mcc,37.36
2023-05-05T00:51:00,mcc,47.62
2023-05-05T00:52:00,mcc,36.78
2023-05-05T00:53:00,mcc,37.07
2023-05-05T00:54:00,mcc,38.45
2023-05-05T00:55:00,mcc,36.49
2023-05-05T00:56:00,mcc,35.66
2023-05-05T00:57:00,mcc,36.97
2023-05-05T00:58:00,mcc,40.85
2023-05-05T00:59:00,mcc,38.63
2023-05-05T01:00:00,mcc,38.73
2023-05-05T01:01:00,mcc,42.06
2023-05-05T01:02:00,mcc,39.12
2023-05-05T01:03:00,mcc,39.70
2023-05-05T01:04:00,mcc,38.94
2023-05-05T01:05:00,mcc,37.13
2023-05-05T01:06:00,mcc,37.20
2023-05-05T01:07:00,mcc,42.26
2023-05-05T01:08:00,mcc,42.76
2023-05-05T01:09:00,mcc,40.51
2023-05-05T01:10:00,mcc,48.73
2023-05-05T01:11:00,mcc,40.98
2023-05-05T01:12:00,mcc,41.63
2023-05-05T01:13:00,mcc,41.24
2023-05-05T01:14:00,mcc,40.32
2023-05-05T01:15:00,mcc,44.15
2023-05-05T01:16:00,mcc,37.82
2023-05-05T01:17:00,mcc,39.23
2023-05-05T01:18:00,mcc,40.67
2023-05-05T01:19:00,mcc,39.13
2023-05-05T01:20:00,mcc,39.99
2023-05-05T01:21:00,mcc,38.64
2023-05-05T01:22:00,mcc,40.52
2023-05-05T01:23:00,mcc,41.07
2023-05-05T01:24:00,mcc,41.04
2023-05-05T01:25:00,mcc,39.02
2023-05-05T01:26:00,mcc,37.98
2023-05-05T01:27:00,mcc,38.61
2023-05-05T01:28:00,mcc,41.21
2023-05-05T01:29:00,mcc,44.88
2023-05-05T01:30:00,mcc,51.42
2023-05-05T01:31:00,mcc,44.72
2023-05-05T01:32:00,mcc,46.49
2023-05-05T01:33:00,mcc,43.05
2023-05-05T01:34:00,mcc,41.77
2023-05-05T01:35:00,mcc,39.90
2023-05-05T01:36:00,mcc,36.91
2023-05-05T01:37:00,mcc,35.91
2023-05-05T01:38:00,mcc,35.82
2023-05-05T01:39:00,mcc,37.37
2023-05-05T01:40:00,mcc,38.85
2023-05-05T01:41:00,mcc,37.55
2023-05-05T01:42:00,mcc,38.70
2023-05-05T01:43:00,mcc,40.54
2023-05-05T01:44:00,mcc,37.76
2023-05-05T01:45:00,mcc,37.24
2023-05-05T01:46:00,mcc,37.31
2023-05-05T01:47:00,mcc,38.68
2023-05-05T01:48:00,mcc,37.33
2023-05-05T01:49:00,mcc,39.10
2023-05-05T01:50:00,mcc,41.16
2023-05-05T01:51:00,mcc,38.71
2023-05-05T01:52:00,mcc,37.70
2023-05-05T01:53:00,mcc,38.07
2023-05-05T01:54:00,mcc,38.24
2023-05-05T01:55:00,mcc,40.72
2023-05-05T01:56:00,mcc,44.62
2023-05-05T01:57:00,mcc,46.27
2023-05-05T01:58:00,mcc,43.96
2023-05-05T01:59:00,mcc,51.35
2023-05-05T02:00:00,mcc,44.88
2023-05-05T02:01:00,mcc,39.01
2023-05-05T02:02:00,mcc,38.70
2023-05-05T02:03:00,mcc,38.54
2023-05-05T02:04:00,mcc,39.90
2023-05-05T02:05:00,mcc,39.75
2023-05-05T02:06:00,mcc,37.89
2023-05-05T02:07:00,mcc,39.18
2023-05-05T02:08:00,mcc,39.43
2023-05-05T02:09:00,mcc,38.76
2023-05-05T02:10:00,mcc,37.67
2023-05-05T02:11:00,mcc,39.90
2023-05-05T02:12:00,mcc,39.00
2023-05-05T02:13:00,mcc,39.10
2023-05-05T02:14:00,mcc,38.41
2023-05-05T02:15:00,mcc,39.84
2023-05-05T02:16:00,mcc,39.72
2023-05-05T02:17:00,mcc,38.47
2023-05-05T02:18:00,mcc,40.57
2023-05-05T02:19:00,mcc,40.22
2023-05-05T02:20:00,mcc,59.58
2023-05-05T02:21:00,mcc,41.40
2023-05-05T02:22:00,mcc,37.88
2023-05-05T02:23:00,mcc,36.73
2023-05-05T02:24:00,mcc,39.49
2023-05-05T02:25:00,mcc,42.88
2023-05-05T02:26:00,mcc,41.88
2023-05-05T02:27:00,mcc,39.00
2023-05-05T02:28:00,mcc,42.08
2023-05-05T02:29:00,mcc,38.70
2023-05-05T02:30:00,mcc,39.49
2023-05-05T02:31:00,mcc,37.24
2023-05-05T02:32:00,mcc,39.94
2023-05-05T02:33:00,mcc,37.34
2023-05-05T02:34:00,mcc,38.19
2023-05-05T02:35:00,mcc,38.92
2023-05-05T02:36:00,mcc,39.43
2023-05-05T02:37:00,mcc,44.88
2023-05-05T02:38:00,mcc,36.31
2023-05-05T02:39:00,mcc,38.40
2023-05-05T02:40:00,mcc,36.49
2023-05-05T02:41:00,mcc,38.02
2023-05-05T02:42:00,mcc,37.97
2023-05-05T02:43:00,mcc,36.87
2023-05-05T02:44:00,mcc,36.52
2023-05-05T02:45:00,mcc,35.99
2023-05-05T02:46:00,mcc,36.13
2023-05-05T02:47:00,mcc,34.40
2023-05-05T02:48:00,mcc,33.16
2023-05-05T02:49:00,mcc,35.63
2023-05-05T02:50:00,mcc,35.00
2023-05-05T02:51:00,mcc,38.19
2023-05-05T02:52:00,mcc,38.44
2023-05-05T02:53:00,mcc,39.45
2023-05-05T02:54:00,mcc,36.89
2023-05-05T02:55:00,mcc,37.81
2023-05-05T02:56:00,mcc,38.77
2023-05-05T02:57:00,mcc,37.01
2023-05-05T02:58:00,mcc,35.22
2023-05-05T02:59:00,mcc,35.60
2023-05-05T03:00:00,mcc,34.90
2023-05-05T03:01:00,mcc,34.39
2023-05-05T03:02:00,mcc,34.97
2023-05-05T03:03:00,mcc,38.06
2023-05-05T03:04:00,mcc,35.48
2023-05-05T03:05:00,mcc,36.16
2023-05-05T03:06:00,mcc,35.89
2023-05-05T03:07:00,mcc,38.21
2023-05-05T03:08:00,mcc,37.63
2023-05-05T03:09:00,mcc,35.59
2023-05-05T03:10:00,mcc,37.73
2023-05-05T03:11:00,mcc,36.97
2023-05-05T03:12:00,mcc,37.87
2023-05-05T03:13:00,mcc,37.91
2023-05-05T03:14:00,mcc,38.88
2023-05-05T03:15:00,mcc,35.74
2023-05-05T03:16:00,mcc,37.35
2023-05-05T03:17:00,mcc,40.03
2023-05-05T03:18:00,mcc,38.30
2023-05-05T03:19:00,mcc,39.47
2023-05-05T03:20:00,mcc,38.68
2023-05-05T03:21:00,mcc,41.25
2023-05-05T03:22:00,mcc,39.82
2023-05-05T03:23:00,mcc,39.88
2023-05-05T03:24:00,mcc,43.36
2023-05-05T03:25:00,mcc,39.80
2023-05-05T03:26:00,mcc,37.34
2023-05-05T03:27:00,mcc,36.68
2023-05-05T03:28:00,mcc,36.05
2023-05-05T03:29:00,mcc,34.45
2023-05-05T03:30:00,mcc,34.25
2023-05-05T03:31:00,mcc,34.25
2023-05-05T03:32:00,mcc,35.30
2023-05-05T03:33:00,mcc,35.93
2023-05-05T03:34:00,mcc,36.63
2023-05-05T03:35:00,mcc,46.37
2023-05-05T03:36:00,mcc,37.30
2023-05-05T03:37:00,mcc,37.89
2023-05-05T03:38:00,mcc,38.50
2023-05-05T03:39:00,mcc,37.48
2023-05-05T03:40:00,mcc,35.88
2023-05-05T03:41:00,mcc,36.15
2023-05-05T03:42:00,mcc,37.94
2023-05-05T03:43:00,mcc,35.10
2023-05-05T03:44:00,mcc,36.00
2023-05-05T03:45:00,mcc,37.84
2023-05-05T03:46:00,mcc,38.18
2023-05-05T03:47:00,mcc,38.32
2023-05-05T03:48:00,mcc,37.09
2023-05-05T03:49:00,mcc,37.85
2023-05-05T03:50:00,mcc,39.38
2023-05-05T03:51:00,mcc,40.83
2023-05-05T03:52:00,mcc,42.90
2023-05-05T03:53:00,mcc,39.65
2023-05-05T03:54:00,mcc,49.56
2023-05-05T03:55:00,mcc,48.35
2023-05-05T03:56:00,mcc,49.40
2023-05-05T03:57:00,mcc,47.04
2023-05-05T03:58:00,mcc,37.46
2023-05-05T03:59:00,mcc,39.06
2023-05-05T04:00:00,mcc,46.28
2023-05-05T04:01:00,mcc,36.00
2023-05-05T04:02:00,mcc,35.85
2023-05-05T04:03:00,mcc,37.54
2023-05-05T04:04:00,mcc,35.25
2023-05-05T04:05:00,mcc,36.06
2023-05-05T04:06:00,mcc,40.07
2023-05-05T04:07:00,mcc,38.29
2023-05-05T04:08:00,mcc,44.36
2023-05-05T04:09:00,mcc,44.29
2023-05-05T04:10:00,mcc,44.35
2023-05-05T04:11:00,mcc,45.21
2023-05-05T04:12:00,mcc,35.76
2023-05-05T04:13:00,mcc,35.79
2023-05-05T04:14:00,mcc,35.59
2023-05-05T04:15:00,mcc,38.26
2023-05-05T04:16:00,mcc,39.93
2023-05-05T04:17:00,mcc,38.52
2023-05-05T04:18:00,mcc,38.64
2023-05-05T04:19:00,mcc,39.33
2023-05-05T04:20:00,mcc,39.33
2023-05-05T04:21:00,mcc,36.27
2023-05-05T04:22:00,mcc,36.13
2023-05-05T04:23:00,mcc,38.12
2023-05-05T04:24:00,mcc,46.43
2023-05-05T04:25:00,mcc,38.21
2023-05-05T04:26:00,mcc,38.41
2023-05-05T04:27:00,mcc,39.76
2023-05-05T04:28:00,mcc,39.68
2023-05-05T04:29:00,mcc,40.11
2023-05-05T04:30:00,mcc,39.86
2023-05-05T04:31:00,mcc,39.20
2023-05-05T04:32:00,mcc,37.53
2023-05-05T04:33:00,mcc,37.96
2023-05-05T04:34:00,mcc,38.80
2023-05-05T04:35:00,mcc,36.66
2023-05-05T04:36:00,mcc,37.14
2023-05-05T04:37:00,mcc,39.24
2023-05-05T04:38:00,mcc,36.67
2023-05-05T04:39:00,mcc,36.63
2023-05-05T04:40:00,mcc,37.45
2023-05-05T04:41:00,mcc,39.63
2023-05-05T04:42:00,mcc,39.75
2023-05-05T04:43:00,mcc,38.84
2023-05-05T04:44:00,mcc,40.18
2023-05-05T04:45:00,mcc,37.74
2023-05-05T04:46:00,mcc,45.75
2023-05-05T04:47:00,mcc,37.45
2023-05-05T04:48:00,mcc,40.16
2023-05-05T04:49:00,mcc,35.59
2023-05-05T04:50:00,mcc,36.48
2023-05-05T04:51:00,mcc,40.70
2023-05-05T04:52:00,mcc,39.32
2023-05-05T04:53:00,mcc,40.18
2023-05-05T04:54:00,mcc,40.66
2023-05-05T04:55:00,mcc,42.72
2023-05-05T04:56:00,mcc,42.04
2023-05-05T04:57:00,mcc,41.62
2023-05-05T04:58:00,mcc,41.67
2023-05-05T04:59:00,mcc,39.04
2023-05-05T05:00:00,mcc,38.68
2023-05-05T05:01:00,mcc,37.17
2023-05-05T05:02:00,mcc,38.40
2023-05-05T05:03:00,mcc,35.46
2023-05-05T05:04:00,mcc,35.76
2023-05-05T05:05:00,mcc,36.91
2023-05-05T05:06:00,mcc,34.73
2023-05-05T05:07:00,mcc,37.76
2023-05-05T05:08:00,mcc,38.92
2023-05-05T05:09:00,mcc,40.59
2023-05-05T05:10:00,mcc,40.86
2023-05-05T05:11:00,mcc,42.43
2023-05-05T05:12:00,mcc,43.06
2023-05-05T05:13:00,mcc,43.63
2023-05-05T05:14:00,mcc,52.22
2023-05-05T05:15:00,mcc,42.43
2023-05-05T05:16:00,mcc,41.83
2023-05-05T05:17:00,mcc,38.18
2023-05-05T05:18:00,mcc,38.48
2023-05-05T05:19:00,mcc,39.59
2023-05-05T05:20:00,mcc,40.33
2023-05-05T05:21:00,mcc,41.70
2023-05-05T05:22:00,mcc,42.34
2023-05-05T05:23:00,mcc,41.47
2023-05-05T05:24:00,mcc,40.86
2023-05-05T05:25:00,mcc,40.11
2023-05-05T05:26:00,mcc,42.42
2023-05-05T05:27:00,mcc,38.26
2023-05-05T05:28:00,mcc,38.63
2023-05-05T05:29:00,mcc,39.73
2023-05-05T05:30:00,mcc,39.19
2023-05-05T05:31:00,mcc,47.37
2023-05-05T05:32:00,mcc,37.45
2023-05-05T05:33:00,mcc,41.61
2023-05-05T05:34:00,mcc,39.27
2023-05-05T05:35:00,mcc,37.83
2023-05-05T05:36:00,mcc,38.51
2023-05-05T05:37:00,mcc,40.03
2023-05-05T05:38:00,mcc,39.03
2023-05-05T05:39:00,mcc,39.51
2023-05-05T05:40:00,mcc,40.55
2023-05-05T05:41:00,mcc,38.94
2023-05-05T05:42:00,mcc,38.85
2023-05-05T05:43:00,mcc,39.79
2023-05-05T05:44:00,mcc,44.73
2023-05-05T05:45:00,mcc,41.42
2023-05-05T05:46:00,mcc,39.37
2023-05-05T05:47:00,mcc,42.58
2023-05-05T05:48:00,mcc,39.89
2023-05-05T05:49:00,mcc,39.22
2023-05-05T05:50:00,mcc,41.53
2023-05-05T05:51:00,mcc,42.20
2023-05-05T05:52:00,mcc,44.02
2023-05-05T05:53:00,mcc,42.82
2023-05-05T05:54:00,mcc,43.75
2023-05-05T05:55:00,mcc,41.43
2023-05-05T05:56:00,mcc,40.20
2023-05-05T05:57:00,mcc,38.77
2023-05-05T05:58:00,mcc,38.77
2023-05-05T05:59:00,mcc,39.41
2023-05-05T06:00:00,mcc,40.93
2023-05-05T06:01:00,mcc,41.37
2023-05-05T06:02:00,mcc,37.34
2023-05-05T06:03:00,mcc,34.45
2023-05-05T06:04:00,mcc,34.27
2023-05-05T06:05:00,mcc,34.95
2023-05-05T06:06:00,mcc,34.99
2023-05-05T06:07:00,mcc,35.72
2023-05-05T06:08:00,mcc,39.44
2023-05-05T06:09:00,mcc,36.61
2023-05-05T06:10:00,mcc,44.67
2023-05-05T06:11:00,mcc,39.08
2023-05-05T06:12:00,mcc,38.91
2023-05-05T06:13:00,mcc,35.91
2023-05-05T06:14:00,mcc,36.92
2023-05-05T06:15:00,mcc,38.63
2023-05-05T06:16:00,mcc,37.06
2023-05-05T06:17:00,mcc,38.37
2023-05-05T06:18:00,mcc,38.15
2023-05-05T06:19:00,mcc,50.26
2023-05-05T06:20:00,mcc,38.26
2023-05-05T06:21:00,mcc,39.08
2023-05-05T06:22:00,mcc,45.47
2023-05-05T06:23:00,mcc,43.75
2023-05-05T06:24:00,mcc,44.58
2023-05-05T06:25:00,mcc,42.95
2023-05-05T06:26:00,mcc,45.49
2023-05-05T06:27:00,mcc,41.44
2023-05-05T06:28:00,mcc,41.56
2023-05-05T06:29:00,mcc,45.25
2023-05-05T06:30:00,mcc,51.38
2023-05-05T06:31:00,mcc,41.32
2023-05-05T06:32:00,mcc,42.79
2023-05-05T06:33:00,mcc,41.91
2023-05-05T06:34:00,mcc,41.84
2023-05-05T06:35:00,mcc,40.49
2023-05-05T06:36:00,mcc,41.07
2023-05-05T06:37:00,mcc,58.15
2023-05-05T06:38:00,mcc,61.12
2023-05-05T06:39:00,mcc,62.53
2023-05-05T06:40:00,mcc,64.13
2023-05-05T06:41:00,mcc,60.43
2023-05-05T06:42:00,mcc,58.00
2023-05-05T06:43:00,mcc,60.19
2023-05-05T06:44:00,mcc,75.21
2023-05-05T06:45:00,mcc,64.67
2023-05-05T06:46:00,mcc,66.06
2023-05-05T06:47:00,mcc,66.36
2023-05-05T06:48:00,mcc,62.44
2023-05-05T06:49:00,mcc,68.29
2023-05-05T06:50:00,mcc,63.36
2023-05-05T06:51:00,mcc,59.55
2023-05-05T06:52:00,mcc,61.16
2023-05-05T06:53:00,mcc,51.80
2023-05-05T06:54:00,mcc,52.92
2023-05-05T06:55:00,mcc,50.86
2023-05-05T06:56:00,mcc,50.57
2023-05-05T06:57:00,mcc,51.95
2023-05-05T06:58:00,mcc,57.78
2023-05-05T06:59:00,mcc,61.29
2023-05-05T07:00:00,mcc,63.89
2023-05-05T07:01:00,mcc,69.05
2023-05-05T07:02:00,mcc,67.11
2023-05-05T07:03:00,mcc,70.17
2023-05-05T07:04:00,mcc,67.90
2023-05-05T07:05:00,mcc,67.86
2023-05-05T07:06:00,mcc,59.22
2023-05-05T07:07:00,mcc,68.61
2023-05-05T07:08:00,mcc,69.54
2023-05-05T07:09:00,mcc,68.33
2023-05-05T07:10:00,mcc,68.29
2023-05-05T07:11:00,mcc,62.87
2023-05-05T07:12:00,mcc,61.66
2023-05-05T07:13:00,mcc,69.14
2023-05-05T07:14:00,mcc,60.36
2023-05-05T07:15:00,mcc,60.37
2023-05-05T07:16:00,mcc,59.77
2023-05-05T07:17:00,mcc,57.75
2023-05-05T07:18:00,mcc,65.92
2023-05-05T07:19:00,mcc,76.98
2023-05-05T07:20:00,mcc,65.77
2023-05-05T07:21:00,mcc,58.09
2023-05-05T07:22:00,mcc,57.42
2023-05-05T07:23:00,mcc,58.60
2023-05-05T07:24:00,mcc,57.30
2023-05-05T07:25:00,mcc,59.77
2023-05-05T07:26:00,mcc,59.20
2023-05-05T07:27:00,mcc,57.42
2023-05-05T07:28:00,mcc,58.99
2023-05-05T07:29:00,mcc,60.97
2023-05-05T07:30:00,mcc,57.22
2023-05-05T07:31:00,mcc,57.25
2023-05-05T07:32:00,mcc,63.13
2023-05-05T07:33:00,mcc,62.18
2023-05-05T07:34:00,mcc,63.79
2023-05-05T07:35:00,mcc,62.77
2023-05-05T07:36:00,mcc,63.55
2023-05-05T07:37:00,mcc,64.16
2023-05-05T07:38:00,mcc,63.11
2023-05-05T07:39:00,mcc,64.89
2023-05-05T07:40:00,mcc,61.31
2023-05-05T07:41:00,mcc,61.37
2023-05-05T07:42:00,mcc,60.67
2023-05-05T07:43:00,mcc,60.59
2023-05-05T07:44:00,mcc,70.92
2023-05-05T07:45:00,mcc,64.75
2023-05-05T07:46:00,mcc,64.05
2023-05-05T07:47:00,mcc,61.10
2023-05-05T07:48:00,mcc,61.71
2023-05-05T07:49:00,mcc,63.78
2023-05-05T07:50:00,mcc,62.26
2023-05-05T07:51:00,mcc,63.54
2023-05-05T07:52:00,mcc,61.90
2023-05-05T07:53:00,mcc,63.97
2023-05-05T07:54:00,mcc,63.02
2023-05-05T07:55:00,mcc,61.11
2023-05-05T07:56:00,mcc,62.24
2023-05-05T07:57:00,mcc,61.18
2023-05-05T07:58:00,mcc,61.31
2023-05-05T07:59:00,mcc,61.79
2023-05-05T08:00:00,mcc,59.67
2023-05-05T08:01:00,mcc,58.61
2023-05-05T08:02:00,mcc,62.06
2023-05-05T08:03:00,mcc,70.78
2023-05-05T08:04:00,mcc,62.05
2023-05-05T08:05:00,mcc,63.52
2023-05-05T08:06:00,mcc,64.29
2023-05-05T08:07:00,mcc,63.09
2023-05-05T08:08:00,mcc,62.83
2023-05-05T08:09:00,mcc,62.99
2023-05-05T08:10:00,mcc,72.38
2023-05-05T08:11:00,mcc,69.79
2023-05-05T08:12:00,mcc,71.54
2023-05-05T08:13:00,mcc,73.29
2023-05-05T08:14:00,mcc,82.11
2023-05-05T08:15:00,mcc,72.25
2023-05-05T08:16:00,mcc,69.78
2023-05-05T08:17:00,mcc,75.37
2023-05-05T08:18:00,mcc,74.91
2023-05-05T08:19:00,mcc,73.27
2023-05-05T08:20:00,mcc,65.24
2023-05-05T08:21:00,mcc,63.92
2023-05-05T08:22:00,mcc,70.21
2023-05-05T08:23:00,mcc,63.22
2023-05-05T08:24:00,mcc,62.30
2023-05-05T08:25:00,mcc,64.78
2023-05-05T08:26:00,mcc,65.72
2023-05-05T08:27:00,mcc,65.93
2023-05-05T08:28:00,mcc,65.72
2023-05-05T08:29:00,mcc,66.33
2023-05-05T08:30:00,mcc,66.25
2023-05-05T08:31:00,mcc,66.08
2023-05-05T08:32:00,mcc,67.39
2023-05-05T08:33:00,mcc,65.84
2023-05-05T08:34:00,mcc,63.56
2023-05-05T08:35:00,mcc,64.46
2023-05-05T08:36:00,mcc,64.63
2023-05-05T08:37:00,mcc,64.24
2023-05-05T08:38:00,mcc,65.29
2023-05-05T08:39:00,mcc,67.77
2023-05-05T08:40:00,mcc,74.55
2023-05-05T08:41:00,mcc,75.23
2023-05-05T08:42:00,mcc,67.18
2023-05-05T08:43:00,mcc,67.34
2023-05-05T08:44:00,mcc,69.03
2023-05-05T08:45:00,mcc,65.62
2023-05-05T08:46:00,mcc,73.82
2023-05-05T08:47:00,mcc,68.55
2023-05-05T08:48:00,mcc,66.43
2023-05-05T08:49:00,mcc,66.52
2023-05-05T08:50:00,mcc,67.59
2023-05-05T08:51:00,mcc,63.90
2023-05-05T08:52:00,mcc,83.28
2023-05-05T08:53:00,mcc,75.43
2023-05-05T08:54:00,mcc,66.37
2023-05-05T08:55:00,mcc,68.56
2023-05-05T08:56:00,mcc,68.44
2023-05-05T08:57:00,mcc,65.40
2023-05-05T08:58:00,mcc,64.62
2023-05-05T08:59:00,mcc,73.37
2023-05-05T09:00:00,mcc,65.67
2023-05-05T09:01:00,mcc,64.06
2023-05-05T09:02:00,mcc,67.88
2023-05-05T09:03:00,mcc,67.29
2023-05-05T09:04:00,mcc,67.40
2023-05-05T09:05:00,mcc,67.57
2023-05-05T09:06:00,mcc,69.26
2023-05-05T09:07:00,mcc,66.76
2023-05-05T09:08:00,mcc,66.77
2023-05-05T09:09:00,mcc,65.03
2023-05-05T09:10:00,mcc,75.38
2023-05-05T09:11:00,mcc,64.66
2023-05-05T09:12:00,mcc,67.50
2023-05-05T09:13:00,mcc,66.19
2023-05-05T09:14:00,mcc,72.69
2023-05-05T09:15:00,mcc,63.78
2023-05-05T09:16:00,mcc,62.46
2023-05-05T09:17:00,mcc,63.93
2023-05-05T09:18:00,mcc,63.70
2023-05-05T09:19:00,mcc,69.24
2023-05-05T09:20:00,mcc,63.73
2023-05-05T09:21:00,mcc,63.70
2023-05-05T09:22:00,mcc,62.50
2023-05-05T09:23:00,mcc,76.45
2023-05-05T09:24:00,mcc,64.19
2023-05-05T09:25:00,mcc,61.01
2023-05-05T09:26:00,mcc,73.84
2023-05-05T09:27:00,mcc,68.34
2023-05-05T09:28:00,mcc,66.79
2023-05-05T09:29:00,mcc,65.39
2023-05-05T09:30:00,mcc,63.65
2023-05-05T09:31:00,mcc,67.27
2023-05-05T09:32:00,mcc,72.62
2023-05-05T09:33:00,mcc,62.77
2023-05-05T09:34:00,mcc,66.39
2023-05-05T09:35:00,mcc,64.00
2023-05-05T09:36:00,mcc,64.40
2023-05-05T09:37:00,mcc,67.28
2023-05-05T09:38:00,mcc,67.44
2023-05-05T09:39:00,mcc,69.67
2023-05-05T09:40:00,mcc,62.05
2023-05-05T09:41:00,mcc,65.64
2023-05-05T09:42:00,mcc,61.97
2023-05-05T09:43:00,mcc,63.19
2023-05-05T09:44:00,mcc,62.12
2023-05-05T09:45:00,mcc,72.75
2023-05-05T09:46:00,mcc,66.78
2023-05-05T09:47:00,mcc,66.72
2023-05-05T09:48:00,mcc,69.79
2023-05-05T09:49:00,mcc,67.33
2023-05-05T09:50:00,mcc,65.47
2023-05-05T09:51:00,mcc,71.76
2023-05-05T09:52:00,mcc,61.14
2023-05-05T09:53:00,mcc,68.50
2023-05-05T09:54:00,mcc,72.58
2023-05-05T09:55:00,mcc,64.92
2023-05-05T09:56:00,mcc,67.10
2023-05-05T09:57:00,mcc,64.50
2023-05-05T09:58:00,mcc,66.08
2023-05-05T09:59:00,mcc,64.87
2023-05-05T10:00:00,mcc,65.90
2023-05-05T10:01:00,mcc,64.45
2023-05-05T10:02:00,mcc,65.49
2023-05-05T10:03:00,mcc,67.20
2023-05-05T10:04:00,mcc,68.04
2023-05-05T10:05:00,mcc,65.92
2023-05-05T10:06:00,mcc,66.23
2023-05-05T10:07:00,mcc,65.75
2023-05-05T10:08:00,mcc,66.71
2023-05-05T10:09:00,mcc,73.84
2023-05-05T10:10:00,mcc,79.29
2023-05-05T10:11:00,mcc,65.22
2023-05-05T10:12:00,mcc,65.73
2023-05-05T10:13:00,mcc,70.85
2023-05-05T10:14:00,mcc,65.38
2023-05-05T10:15:00,mcc,73.21
2023-05-05T10:16:00,mcc,69.33
2023-05-05T10:17:00,mcc,71.18
2023-05-05T10:18:00,mcc,69.69
2023-05-05T10:19:00,mcc,72.73
2023-05-05T10:20:00,mcc,73.96
2023-05-05T10:21:00,mcc,78.35
2023-05-05T10:22:00,mcc,67.50
2023-05-05T10:23:00,mcc,69.07
2023-05-05T10:24:00,mcc,67.15
2023-05-05T10:25:00,mcc,70.46
2023-05-05T10:26:00,mcc,72.99
2023-05-05T10:27:00,mcc,77.09
2023-05-05T10:28:00,mcc,68.73
2023-05-05T10:29:00,mcc,75.87
2023-05-05T10:30:00,mcc,69.12
2023-05-05T10:31:00,mcc,68.35
2023-05-05T10:32:00,mcc,66.03
2023-05-05T10:33:00,mcc,78.67
2023-05-05T10:34:00,mcc,77.15
2023-05-05T10:35:00,mcc,77.42
2023-05-05T10:36:00,mcc,77.94
2023-05-05T10:37:00,mcc,69.12
2023-05-05T10:38:00,mcc,71.92
2023-05-05T10:39:00,mcc,71.00
2023-05-05T10:40:00,mcc,77.21
2023-05-05T10:41:00,mcc,76.38
2023-05-05T10:42:00,mcc,71.36
2023-05-05T10:43:00,mcc,67.43
2023-05-05T10:44:00,mcc,69.86
2023-05-05T10:45:00,mcc,76.95
2023-05-05T10:46:00,mcc,69.54
2023-05-05T10:47:00,mcc,82.78
2023-05-05T10:48:00,mcc,68.14
2023-05-05T10:49:00,mcc,70.45
2023-05-05T10:50:00,mcc,70.50
2023-05-05T10:51:00,mcc,72.07
2023-05-05T10:52:00,mcc,67.58
2023-05-05T10:53:00,mcc,65.27
2023-05-05T10:54:00,mcc,67.86
2023-05-05T10:55:00,mcc,67.69
2023-05-05T10:56:00,mcc,65.97
2023-05-05T10:57:00,mcc,78.69
2023-05-05T10:58:00,mcc,70.60
2023-05-05T10:59:00,mcc,66.32
2023-05-05T11:00:00,mcc,70.99
2023-05-05T11:01:00,mcc,71.84
2023-05-05T11:02:00,mcc,68.82
2023-05-05T11:03:00,mcc,79.10
2023-05-05T11:04:00,mcc,70.55
2023-05-05T11:05:00,mcc,72.20
2023-05-05T11:06:00,mcc,82.50
2023-05-05T11:07:00,mcc,73.99
2023-05-05T11:08:00,mcc,71.66
2023-05-05T11:09:00,mcc,76.27
2023-05-05T11:10:00,mcc,83.70
2023-05-05T11:11:00,mcc,68.14
2023-05-05T11:12:00,mcc,65.73
2023-05-05T11:13:00,mcc,63.30
2023-05-05T11:14:00,mcc,67.65
2023-05-05T11:15:00,mcc,80.04
2023-05-05T11:16:00,mcc,67.86
2023-05-05T11:17:00,mcc,71.37
2023-05-05T11:18:00,mcc,71.89
2023-05-05T11:19:00,mcc,81.29
2023-05-05T11:20:00,mcc,67.81
2023-05-05T11:21:00,mcc,67.20
2023-05-05T11:22:00,mcc,65.96
2023-05-05T11:23:00,mcc,68.78
2023-05-05T11:24:00,mcc,74.53
2023-05-05T11:25:00,mcc,73.33
2023-05-05T11:26:00,mcc,69.35
2023-05-05T11:27:00,mcc,77.48
2023-05-05T11:28:00,mcc,67.01
2023-05-05T11:29:00,mcc,68.16
2023-05-05T11:30:00,mcc,65.74
2023-05-05T11:31:00,mcc,66.04
2023-05-05T11:32:00,mcc,73.99
2023-05-05T11:33:00,mcc,74.89
2023-05-05T11:34:00,mcc,76.73
2023-05-05T11:35:00,mcc,78.29
2023-05-05T11:36:00,mcc,74.53
2023-05-05T11:37:00,mcc,75.11
2023-05-05T11:38:00,mcc,77.98
2023-05-05T11:39:00,mcc,76.92
2023-05-05T11:40:00,mcc,75.31
2023-05-05T11:41:00,mcc,67.38
2023-05-05T11:42:00,mcc,73.62
2023-05-05T11:43:00,mcc,85.09
2023-05-05T11:44:00,mcc,74.33
2023-05-05T11:45:00,mcc,70.42
2023-05-05T11:46:00,mcc,67.73
2023-05-05T11:47:00,mcc,67.83
2023-05-05T11:48:00,mcc,70.73
2023-05-05T11:49:00,mcc,66.87
2023-05-05T11:50:00,mcc,70.49
2023-05-05T11:51:00,mcc,66.46
2023-05-05T11:52:00,mcc,67.13
2023-05-05T11:53:00,mcc,71.77
2023-05-05T11:54:00,mcc,69.83
2023-05-05T11:55:00,mcc,70.99
2023-05-05T11:56:00,mcc,69.56
2023-05-05T11:57:00,mcc,78.51
2023-05-05T11:58:00,mcc,69.63
2023-05-05T11:59:00,mcc,71.87
2023-05-05T12:00:00,mcc,73.21
2023-05-05T12:01:00,mcc,82.57
2023-05-05T12:02:00,mcc,75.27
2023-05-05T12:03:00,mcc,79.79
2023-05-05T12:04:00,mcc,68.61
2023-05-05T12:05:00,mcc,72.70
2023-05-05T12:06:00,mcc,71.41
2023-05-05T12:07:00,mcc,71.19
2023-05-05T12:08:00,mcc,77.57
2023-05-05T12:09:00,mcc,79.08
2023-05-05T12:10:00,mcc,85.85
2023-05-05T12:11:00,mcc,66.10
2023-05-05T12:12:00,mcc,65.95
2023-05-05T12:13:00,mcc,81.88
2023-05-05T12:14:00,mcc,67.22
2023-05-05T12:15:00,mcc,76.29
2023-05-05T12:16:00,mcc,72.77
2023-05-05T12:17:00,mcc,68.53
2023-05-05T12:18:00,mcc,68.41
2023-05-05T12:19:00,mcc,69.95
2023-05-05T12:20:00,mcc,79.64
2023-05-05T12:21:00,mcc,70.25
2023-05-05T12:22:00,mcc,76.32
2023-05-05T12:23:00,mcc,66.14
2023-05-05T12:24:00,mcc,67.49
2023-05-05T12:25:00,mcc,65.41
2023-05-05T12:26:00,mcc,67.54
2023-05-05T12:27:00,mcc,65.76
2023-05-05T12:28:00,mcc,77.61
2023-05-05T12:29:00,mcc,71.60
2023-05-05T12:30:00,mcc,66.00
2023-05-05T12:31:00,mcc,67.42
2023-05-05T12:32:00,mcc,68.23
2023-05-05T12:33:00,mcc,68.09
2023-05-05T12:34:00,mcc,68.20
2023-05-05T12:35:00,mcc,70.11
2023-05-05T12:36:00,mcc,64.68
2023-05-05T12:37:00,mcc,63.65
2023-05-05T12:38:00,mcc,66.64
2023-05-05T12:39:00,mcc,75.76
2023-05-05T12:40:00,mcc,68.17
2023-05-05T12:41:00,mcc,76.39
2023-05-05T12:42:00,mcc,75.65
2023-05-05T12:43:00,mcc,75.42
2023-05-05T12:44:00,mcc,72.57
2023-05-05T12:45:00,mcc,74.55
2023-05-05T12:46:00,mcc,78.45
2023-05-05T12:47:00,mcc,74.76
2023-05-05T12:48:00,mcc,68.88
2023-05-05T12:49:00,mcc,67.16
2023-05-05T12:50:00,mcc,65.91
2023-05-05T12:51:00,mcc,66.52
2023-05-05T12:52:00,mcc,67.01
2023-05-05T12:53:00,mcc,73.53
2023-05-05T12:54:00,mcc,65.76
2023-05-05T12:55:00,mcc,65.28
2023-05-05T12:56:00,mcc,78.46
2023-05-05T12:57:00,mcc,81.13
2023-05-05T12:58:00,mcc,75.83
2023-05-05T12:59:00,mcc,73.88
2023-05-05T13:00:00,mcc,72.78
2023-05-05T13:01:00,mcc,67.21
2023-05-05T13:02:00,mcc,66.47
2023-05-05T13:03:00,mcc,63.59
2023-05-05T13:04:00,mcc,65.24
2023-05-05T13:05:00,mcc,68.11
2023-05-05T13:06:00,mcc,74.78
2023-05-05T13:07:00,mcc,63.09
2023-05-05T13:08:00,mcc,68.93
2023-05-05T13:09:00,mcc,69.09
2023-05-05T13:10:00,mcc,69.42
2023-05-05T13:11:00,mcc,69.55
2023-05-05T13:12:00,mcc,79.16
2023-05-05T13:13:00,mcc,70.26
2023-05-05T13:14:00,mcc,66.63
2023-05-05T13:15:00,mcc,64.83
2023-05-05T13:16:00,mcc,63.40
2023-05-05T13:17:00,mcc,65.86
2023-05-05T13:18:00,mcc,73.70